Location: Unspecified
(34.1750°S, 150.8048°E)
Time: 09:22:13
(UTC+10:00)

Tiangong - Pass Details

Date: 25 April 2024
Orbit: 372 x 376 km, 41.5° (Epoch: 18 May)

Event Time Altitude Azimuth Distance (km) Brightness Sun altitude
Exits shadow 05:09:14 38° 216° (SW) 599 -1.5 -16.7°
Maximum altitude 05:09:33 40° 199° (SSW) 584 -1.5 -16.6°
Drops below altitude 10° 05:12:35 10° 127° (SE) 1,412 1.4 -16.0°
Sets 05:14:45 0° 119° (ESE) 2,272 2.7 -15.6°
